QPF
0.00 0.00 0.00 0.00 0.00 0.00 0.00 0.00 0.00 0.00 0.00 0.00 0.00 0.01 0.01 0.01 0.01 0.01 0.01 0.01 0.01 0.01 0.01 0.01 0.00 0.00 0.00 0.00 0.00 0.00 0.01 0.01 0.01 0.01 0.01 0.02 0.02 0.01 0.01 0.01 0.00 0.00 0.01
0.00 0.00 0.00 0.00 0.00 0.00 0.00 0.00 0.00 0.00 0.00 0.00 0.00 0.00 0.00 0.00 0.00 0.00 0.00 0.01 0.00 0.01 0.01 0.00 0.00 0.00 0.00 0.00 0.00 0.00 0.01 0.01 0.01 0.00 0.00 0.00 0.01 0.01 0.01 0.01 0.01 0.01 0.01
0.00 0.00 0.00 0.00 0.00 0.00 0.00 0.00 0.00 0.00 0.00 0.00 0.00 0.00 0.00 0.00 0.00 0.00 0.00 0.00 0.00 0.00 0.00 0.00 0.00 0.00 0.00 0.00 0.00 0.00 0.00 0.00 0.00 0.00 0.00 0.00 0.00 0.01 0.01 0.01 0.01 0.01 0.01
0.00 0.00 0.00 0.00 0.00 0.00 0.00 0.00 0.00 0.00 0.00 0.00 0.00 0.00 0.00 0.00 0.00 0.00 0.00 0.00 0.00 0.00 0.00 0.00 0.00 0.00 0.00 0.00 0.00 0.00 0.00 0.00 0.00 0.00 0.00 0.00 0.00 0.01 0.01 0.01 0.01 0.01 0.01
0.00 0.00 0.00 0.00 0.00 0.00 0.00 0.00 0.00 0.00 0.00 0.00 0.00 0.00 0.00 0.00 0.00 0.00 0.00 0.00 0.00 0.00 0.00 0.00 0.00 0.00 0.00 0.00 0.00 0.00 0.00 0.00 0.00 0.00 0.00 0.00 0.00 0.01 0.01 0.01 0.01 0.01 0.01
0.00 0.00 0.00 0.00 0.00 0.00 0.00 0.00 0.00 0.00 0.00 0.00 0.00 0.00 0.00 0.00 0.00 0.00 0.00 0.00 0.00 0.00 0.00 0.00 0.00 0.00 0.00 0.00 0.00 0.00 0.00 0.00 0.00 0.00 0.00 0.00 0.00 0.01 0.01 0.01 0.01 0.01 0.01
0.00 0.00 0.00 0.00 0.00 0.00 0.00 0.00 0.00 0.00 0.00 0.00 0.00 0.00 0.00 0.00 0.00 0.00 0.00 0.00 0.00 0.00 0.00 0.00 0.00 0.00 0.00 0.00 0.00 0.00 0.00 0.00 0.00 0.00 0.00 0.00 0.00 0.01 0.01 0.01 0.01 0.01 0.01
0.00 0.00 0.00 0.00 0.00 0.00 0.00 0.00 0.00 0.00 0.00 0.00 0.00 0.00 0.00 0.00 0.00 0.00 0.00 0.00 0.00 0.00 0.00 0.00 0.00 0.00 0.00 0.00 0.00 0.00 0.00 0.00 0.00 0.00 0.00 0.00 0.00 0.00 0.00 0.00 0.00 0.01 0.01
0.00 0.00 0.00 0.00 0.00 0.00 0.00 0.00 0.00 0.00 0.00 0.00 0.00 0.00 0.00 0.00 0.00 0.00 0.00 0.00 0.00 0.00 0.00 0.00 0.00 0.00 0.00 0.00 0.00 0.00 0.00 0.00 0.00 0.00 0.00 0.00 0.00 0.00 0.00 0.00 0.00 0.00 0.00
0.00 0.00 0.00 0.00 0.00 0.00 0.00 0.00 0.00 0.00 0.00 0.00 0.00 0.00 0.00 0.00 0.00 0.00 0.00 0.00 0.00 0.00 0.00 0.00 0.00 0.00 0.00 0.00 0.00 0.00 0.00 0.00 0.00 0.00 0.00 0.00 0.00 0.00 0.00 0.00 0.00 0.00 0.00
0.00 0.00 0.00 0.00 0.00 0.00 0.00 0.00 0.00 0.00 0.00 0.00 0.00 0.00 0.00 0.00 0.00 0.00 0.00 0.00 0.00 0.00 0.00 0.00 0.00 0.00 0.00 0.00 0.00 0.00 0.00 0.00 0.00 0.00 0.00 0.00 0.00 0.00 0.00 0.00 0.00 0.00 0.00
0.00 0.00 0.00 0.00 0.00 0.00 0.00 0.00 0.00 0.00 0.00 0.00 0.00 0.00 0.00 0.00 0.00 0.00 0.00 0.00 0.00 0.00 0.00 0.00 0.00 0.00 0.00 0.00 0.00 0.00 0.00 0.00 0.00 0.00 0.00 0.00 0.00 0.00 0.00 0.00 0.00 0.00 0.00
0.00 0.00 0.00 0.00 0.00 0.00 0.00 0.00 0.00 0.00 0.00 0.00 0.00 0.00 0.00 0.00 0.00 0.00 0.00 0.00 0.00 0.00 0.00 0.00 0.00 0.00 0.00 0.00 0.00 0.00 0.00 0.00 0.00 0.00 0.00 0.00 0.00 0.00 0.00 0.00 0.00 0.00 0.00
0.00 0.00 0.00 0.00 0.00 0.00 0.00 0.00 0.00 0.00 0.00 0.00 0.00 0.00 0.00 0.00 0.00 0.00 0.00 0.00 0.00 0.00 0.00 0.00 0.00 0.00 0.00 0.00 0.00 0.00 0.00 0.00 0.00 0.00 0.00 0.00 0.00 0.00 0.00 0.00 0.00 0.00 0.00
0.00 0.00 0.00 0.00 0.00 0.00 0.00 0.00 0.00 0.00 0.00 0.00 0.00 0.00 0.00 0.00 0.00 0.00 0.00 0.00 0.00 0.00 0.00 0.00 0.00 0.00 0.00 0.00 0.00 0.00 0.00 0.00 0.00 0.00 0.00 0.00 0.00 0.00 0.00 0.00 0.00 0.00 0.00
0.00 0.00 0.00 0.00 0.00 0.00 0.00 0.00 0.00 0.00 0.00 0.00 0.00 0.00 0.00 0.00 0.00 0.00 0.00 0.00 0.00 0.00 0.00 0.00 0.00 0.00 0.00 0.00 0.00 0.00 0.00 0.00 0.00 0.00 0.00 0.00 0.00 0.00 0.00 0.00 0.00 0.00 0.00
0.00 0.00 0.00 0.00 0.00 0.00 0.00 0.00 0.00 0.00 0.00 0.00 0.00 0.00 0.00 0.00 0.00 0.00 0.00 0.00 0.00 0.00 0.00 0.00 0.00 0.00 0.00 0.00 0.00 0.00 0.00 0.00 0.00 0.00 0.00 0.00 0.00 0.00 0.00 0.00 0.00 0.00 0.00
0.00 0.00 0.00 0.00 0.00 0.00 0.00 0.00 0.00 0.00 0.00 0.00 0.00 0.00 0.00 0.00 0.00 0.00 0.00 0.00 0.00 0.00 0.00 0.00 0.00 0.00 0.00 0.00 0.00 0.00 0.00 0.00 0.00 0.00 0.00 0.00 0.00 0.00 0.00 0.00 0.00 0.00 0.00
0.00 0.00 0.00 0.00 0.00 0.00 0.00 0.00 0.00 0.00 0.00 0.00 0.00 0.00 0.00 0.00 0.00 0.00 0.00 0.00 0.00 0.00 0.00 0.00 0.00 0.00 0.00 0.00 0.00 0.00 0.00 0.00 0.00 0.00 0.00 0.00 0.00 0.00 0.00 0.00 0.00 0.00 0.00
0.00 0.00 0.00 0.00 0.00 0.00 0.00 0.00 0.00 0.00 0.00 0.00 0.00 0.00 0.00 0.00 0.00 0.00 0.00 0.00 0.00 0.00 0.00 0.00 0.00 0.00 0.00 0.00 0.00 0.00 0.00 0.00 0.00 0.00 0.00 0.00 0.00 0.00 0.00 0.00 0.00 0.00 0.00
0.00 0.00 0.00 0.00 0.00 0.00 0.00 0.00 0.00 0.00 0.00 0.00 0.00 0.00 0.00 0.00 0.00 0.00 0.00 0.00 0.00 0.00 0.00 0.00 0.00 0.00 0.00 0.00 0.00 0.00 0.00 0.00 0.00 0.00 0.00 0.00 0.00 0.00 0.00 0.00 0.00 0.00 0.00
0.00 0.00 0.00 0.00 0.00 0.00 0.00 0.00 0.00 0.00 0.00 0.00 0.00 0.00 0.00 0.00 0.00 0.00 0.00 0.00 0.00 0.00 0.00 0.00 0.00 0.00 0.00 0.00 0.00 0.00 0.00 0.00 0.00 0.00 0.00 0.00 0.00 0.00 0.00 0.00 0.00 0.00 0.00
0.00 0.00 0.00 0.00 0.00 0.00 0.00 0.00 0.00 0.00 0.00 0.00 0.00 0.00 0.00 0.00 0.00 0.00 0.00 0.00 0.00 0.00 0.00 0.00 0.00 0.00 0.00 0.00 0.00 0.00 0.00 0.00 0.00 0.00 0.00 0.00 0.00 0.00 0.00 0.00 0.00 0.00 0.00
0.00 0.00 0.00 0.00 0.00 0.00 0.00 0.00 0.00 0.00 0.00 0.00 0.00 0.00 0.00 0.00 0.00 0.00 0.00 0.00 0.00 0.00 0.00 0.00 0.00 0.00 0.00 0.00 0.00 0.00 0.00 0.00 0.00 0.00 0.00 0.00 0.00 0.00 0.00 0.00 0.00 0.00 0.00
0.00 0.00 0.00 0.00 0.00 0.00 0.00 0.00 0.00 0.00 0.00 0.00 0.00 0.00 0.00 0.00 0.00 0.00 0.00 0.00 0.00 0.00 0.00 0.00 0.00 0.00 0.00 0.00 0.00 0.00 0.00 0.00 0.00 0.00 0.00 0.00 0.00 0.00 0.00 0.00 0.00 0.00 0.00
0.00 0.00 0.00 0.00 0.00 0.00 0.00 0.00 0.00 0.00 0.00 0.00 0.00 0.00 0.00 0.00 0.00 0.00 0.00 0.00 0.00 0.00 0.00 0.00 0.00 0.00 0.00 0.00 0.00 0.00 0.00 0.00 0.00 0.00 0.00 0.00 0.00 0.00 0.00 0.00 0.00 0.00 0.00
MSLP
1019.85 1019.75 1019.80 1020.01 1020.33 1020.74 1021.16 1021.56 1021.89 1022.13 1022.28 1022.38 1022.46 1022.54 1022.67 1022.85 1023.06 1023.29 1023.50 1023.66 1023.78 1023.83 1023.85 1023.84 1023.83 1023.84 1023.88 1023.94 1024.00 1024.05 1024.07 1024.04 1023.95 1023.82 1023.65 1023.47 1023.29 1023.12 1022.98 1022.87 1022.78 1022.71 1022.64
1019.39 1019.35 1019.46 1019.71 1020.10 1020.57 1021.05 1021.51 1021.89 1022.19 1022.39 1022.54 1022.67 1022.82 1023.00 1023.23 1023.49 1023.75 1024.00 1024.19 1024.32 1024.38 1024.40 1024.39 1024.38 1024.38 1024.41 1024.46 1024.51 1024.56 1024.57 1024.54 1024.46 1024.34 1024.18 1024.01 1023.83 1023.66 1023.52 1023.39 1023.29 1023.21 1023.14
1018.96 1018.98 1019.15 1019.46 1019.90 1020.42 1020.96 1021.47 1021.91 1022.26 1022.52 1022.72 1022.91 1023.10 1023.34 1023.60 1023.90 1024.19 1024.44 1024.65 1024.78 1024.85 1024.87 1024.86 1024.85 1024.85 1024.87 1024.91 1024.96 1025.00 1025.02 1025.00 1024.94 1024.84 1024.70 1024.55 1024.39 1024.23 1024.07 1023.94 1023.83 1023.73 1023.65
1018.62 1018.71 1018.92 1019.29 1019.77 1020.33 1020.91 1021.46 1021.93 1022.31 1022.62 1022.87 1023.10 1023.34 1023.61 1023.90 1024.21 1024.51 1024.77 1024.97 1025.11 1025.18 1025.21 1025.20 1025.20 1025.21 1025.23 1025.28 1025.34 1025.39 1025.43 1025.43 1025.40 1025.34 1025.23 1025.10 1024.95 1024.79 1024.63 1024.49 1024.36 1024.25 1024.15
1018.42 1018.56 1018.82 1019.22 1019.73 1020.31 1020.90 1021.45 1021.94 1022.34 1022.67 1022.95 1023.21 1023.48 1023.77 1024.07 1024.39 1024.69 1024.94 1025.14 1025.27 1025.35 1025.39 1025.41 1025.43 1025.46 1025.52 1025.60 1025.68 1025.76 1025.83 1025.87 1025.87 1025.84 1025.76 1025.65 1025.50 1025.34 1025.17 1025.00 1024.85 1024.73 1024.62
1018.37 1018.56 1018.85 1019.27 1019.78 1020.35 1020.92 1021.45 1021.92 1022.31 1022.65 1022.94 1023.22 1023.50 1023.81 1024.12 1024.43 1024.72 1024.97 1025.16 1025.30 1025.39 1025.46 1025.51 1025.57 1025.66 1025.76 1025.88 1026.01 1026.13 1026.24 1026.31 1026.35 1026.34 1026.28 1026.17 1026.02 1025.84 1025.65 1025.46 1025.29 1025.15 1025.04
1018.47 1018.69 1019.00 1019.41 1019.90 1020.43 1020.95 1021.44 1021.86 1022.23 1022.55 1022.84 1023.13 1023.43 1023.75 1024.07 1024.39 1024.67 1024.92 1025.11 1025.26 1025.37 1025.47 1025.57 1025.68 1025.82 1025.98 1026.16 1026.34 1026.51 1026.66 1026.76 1026.82 1026.82 1026.76 1026.64 1026.47 1026.27 1026.05 1025.84 1025.65 1025.50 1025.39
1018.68 1018.91 1019.22 1019.61 1020.06 1020.53 1020.99 1021.41 1021.78 1022.11 1022.41 1022.70 1023.00 1023.32 1023.65 1024.00 1024.32 1024.62 1024.86 1025.06 1025.22 1025.36 1025.49 1025.63 1025.80 1026.00 1026.22 1026.45 1026.68 1026.89 1027.07 1027.19 1027.26 1027.26 1027.19 1027.05 1026.85 1026.62 1026.37 1026.14 1025.94 1025.78 1025.69
1018.92 1019.15 1019.45 1019.81 1020.21 1020.63 1021.02 1021.38 1021.69 1021.98 1022.26 1022.55 1022.87 1023.22 1023.59 1023.96 1024.31 1024.62 1024.88 1025.09 1025.26 1025.42 1025.58 1025.76 1025.97 1026.21 1026.48 1026.75 1027.02 1027.25 1027.44 1027.57 1027.64 1027.62 1027.53 1027.36 1027.13 1026.87 1026.60 1026.35 1026.14 1025.99 1025.91
1019.10 1019.32 1019.61 1019.96 1020.33 1020.69 1021.03 1021.33 1021.61 1021.87 1022.15 1022.46 1022.81 1023.20 1023.61 1024.02 1024.40 1024.73 1025.01 1025.23 1025.41 1025.58 1025.75 1025.95 1026.19 1026.46 1026.74 1027.03 1027.31 1027.55 1027.74 1027.87 1027.92 1027.88 1027.76 1027.57 1027.32 1027.04 1026.75 1026.48 1026.27 1026.14 1026.08
1019.13 1019.37 1019.66 1020.01 1020.36 1020.70 1021.01 1021.28 1021.54 1021.80 1022.09 1022.43 1022.82 1023.26 1023.72 1024.17 1024.59 1024.94 1025.23 1025.46 1025.65 1025.82 1025.99 1026.19 1026.43 1026.70 1026.98 1027.27 1027.54 1027.77 1027.94 1028.05 1028.08 1028.02 1027.88 1027.67 1027.41 1027.11 1026.82 1026.55 1026.34 1026.21 1026.16
1018.99 1019.25 1019.57 1019.93 1020.30 1020.64 1020.95 1021.22 1021.49 1021.76 1022.08 1022.46 1022.90 1023.38 1023.89 1024.38 1024.82 1025.20 1025.50 1025.73 1025.92 1026.08 1026.24 1026.43 1026.65 1026.90 1027.16 1027.43 1027.67 1027.87 1028.02 1028.10 1028.10 1028.03 1027.88 1027.67 1027.40 1027.11 1026.82 1026.55 1026.34 1026.21 1026.15
1018.67 1018.96 1019.33 1019.72 1020.12 1020.50 1020.83 1021.14 1021.43 1021.74 1022.10 1022.51 1022.99 1023.51 1024.05 1024.57 1025.03 1025.42 1025.73 1025.96 1026.14 1026.30 1026.45 1026.62 1026.81 1027.03 1027.26 1027.49 1027.69 1027.85 1027.96 1028.01 1027.99 1027.90 1027.75 1027.54 1027.29 1027.01 1026.73 1026.47 1026.26 1026.11 1026.03
1018.22 1018.56 1018.96 1019.41 1019.86 1020.28 1020.66 1021.02 1021.36 1021.71 1022.10 1022.55 1023.05 1023.59 1024.14 1024.66 1025.13 1025.52 1025.83 1026.07 1026.25 1026.40 1026.55 1026.71 1026.88 1027.07 1027.26 1027.44 1027.59 1027.71 1027.77 1027.78 1027.74 1027.64 1027.49 1027.30 1027.07 1026.81 1026.55 1026.30 1026.09 1025.91 1025.79
1017.73 1018.10 1018.54 1019.04 1019.53 1020.01 1020.45 1020.86 1021.25 1021.64 1022.06 1022.53 1023.03 1023.56 1024.09 1024.60 1025.05 1025.44 1025.75 1025.99 1026.19 1026.36 1026.52 1026.68 1026.84 1027.01 1027.16 1027.30 1027.40 1027.46 1027.47 1027.44 1027.37 1027.25 1027.10 1026.92 1026.72 1026.50 1026.26 1026.03 1025.80 1025.61 1025.45
1017.30 1017.67 1018.14 1018.66 1019.20 1019.72 1020.21 1020.67 1021.10 1021.53 1021.96 1022.42 1022.90 1023.39 1023.88 1024.35 1024.77 1025.14 1025.46 1025.72 1025.94 1026.14 1026.33 1026.51 1026.68 1026.84 1026.97 1027.07 1027.12 1027.12 1027.08 1026.99 1026.88 1026.74 1026.58 1026.41 1026.23 1026.03 1025.83 1025.62 1025.40 1025.20 1025.00
1017.00 1017.36 1017.82 1018.34 1018.90 1019.45 1019.98 1020.47 1020.94 1021.38 1021.81 1022.24 1022.67 1023.10 1023.52 1023.93 1024.31 1024.66 1024.98 1025.26 1025.53 1025.78 1026.01 1026.23 1026.43 1026.59 1026.70 1026.77 1026.77 1026.71 1026.60 1026.45 1026.28 1026.10 1025.93 1025.75 1025.59 1025.43 1025.26 1025.08 1024.89 1024.69 1024.48
1016.90 1017.21 1017.63 1018.12 1018.66 1019.22 1019.77 1020.29 1020.77 1021.22 1021.62 1022.01 1022.37 1022.72 1023.06 1023.39 1023.72 1024.04 1024.36 1024.67 1024.98 1025.29 1025.58 1025.84 1026.07 1026.25 1026.36 1026.39 1026.35 1026.23 1026.05 1025.84 1025.60 1025.37 1025.15 1024.97 1024.81 1024.67 1024.54 1024.40 1024.26 1024.09 1023.91
1016.98 1017.23 1017.58 1018.02 1018.52 1019.06 1019.61 1020.14 1020.62 1021.05 1021.43 1021.75 1022.04 1022.30 1022.55 1022.80 1023.07 1023.35 1023.67 1024.00 1024.35 1024.71 1025.05 1025.37 1025.63 1025.83 1025.94 1025.95 1025.86 1025.69 1025.45 1025.16 1024.85 1024.55 1024.29 1024.07 1023.90 1023.78 1023.68 1023.60 1023.52 1023.41 1023.28
1017.23 1017.39 1017.65 1018.01 1018.46 1018.97 1019.50 1020.01 1020.49 1020.90 1021.23 1021.50 1021.70 1021.87 1022.03 1022.20 1022.41 1022.65 1022.95 1023.30 1023.67 1024.07 1024.45 1024.80 1025.10 1025.31 1025.41 1025.41 1025.29 1025.08 1024.78 1024.42 1024.05 1023.68 1023.36 1023.10 1022.92 1022.80 1022.73 1022.70 1022.68 1022.65 1022.59
1017.59 1017.64 1017.80 1018.08 1018.46 1018.92 1019.42 1019.92 1020.37 1020.76 1021.05 1021.25 1021.39 1021.47 1021.54 1021.64 1021.77 1021.98 1022.25 1022.58 1022.97 1023.37 1023.77 1024.14 1024.44 1024.66 1024.77 1024.76 1024.63 1024.39 1024.05 1023.65 1023.22 1022.80 1022.42 1022.11 1021.89 1021.76 1021.71 1021.72 1021.76 1021.81 1021.83
1017.97 1017.94 1018.01 1018.20 1018.50 1018.90 1019.36 1019.83 1020.26 1020.61 1020.86 1021.01 1021.08 1021.10 1021.09 1021.12 1021.19 1021.34 1021.57 1021.87 1022.23 1022.62 1023.00 1023.36 1023.66 1023.87 1023.98 1023.98 1023.86 1023.62 1023.28 1022.86 1022.40 1021.93 1021.51 1021.15 1020.88 1020.72 1020.67 1020.69 1020.77 1020.87 1020.96
1018.34 1018.24 1018.22 1018.33 1018.56 1018.89 1019.30 1019.72 1020.12 1020.44 1020.65 1020.76 1020.78 1020.74 1020.67 1020.63 1020.65 1020.74 1020.91 1021.16 1021.46 1021.79 1022.14 1022.45 1022.73 1022.93 1023.05 1023.07 1022.97 1022.76 1022.45 1022.05 1021.59 1021.10 1020.64 1020.23 1019.92 1019.72 1019.63 1019.64 1019.73 1019.86 1019.99
1018.66 1018.51 1018.42 1018.46 1018.61 1018.88 1019.23 1019.60 1019.95 1020.23 1020.41 1020.48 1020.46 1020.38 1020.27 1020.18 1020.14 1020.16 1020.27 1020.44 1020.66 1020.91 1021.18 1021.43 1021.66 1021.85 1021.97 1022.01 1021.96 1021.81 1021.56 1021.21 1020.78 1020.30 1019.83 1019.39 1019.02 1018.76 1018.62 1018.59 1018.65 1018.77 1018.90
1018.94 1018.75 1018.62 1018.59 1018.67 1018.87 1019.15 1019.47 1019.76 1020.00 1020.14 1020.18 1020.12 1020.01 1019.87 1019.74 1019.64 1019.61 1019.63 1019.71 1019.83 1019.98 1020.15 1020.32 1020.49 1020.64 1020.76 1020.84 1020.85 1020.78 1020.60 1020.33 1019.96 1019.52 1019.05 1018.59 1018.18 1017.86 1017.65 1017.56 1017.56 1017.63 1017.74
1019.18 1018.98 1018.81 1018.73 1018.75 1018.88 1019.08 1019.33 1019.56 1019.75 1019.85 1019.85 1019.77 1019.64 1019.47 1019.31 1019.17 1019.07 1019.01 1018.99 1019.01 1019.04 1019.10 1019.17 1019.26 1019.37 1019.48 1019.59 1019.65 1019.66 1019.57 1019.38 1019.09 1018.70 1018.25 1017.79 1017.35 1016.98 1016.71 1016.54 1016.48 1016.49 1016.54
Thickness
5713 5712 5710 5706 5703 5699 5697 5695 5692 5690 5688 5686 5685 5683 5682 5680 5679 5678 5678 5678 5677 5677 5677 5677 5678 5678 5678 5678 5679 5680 5681 5681 5682 5683 5685 5687 5689 5689 5690 5690 5691 5693 5695
5721 5714 5710 5706 5702 5698 5695 5693 5690 5687 5685 5683 5681 5679 5677 5676 5675 5674 5673 5673 5672 5672 5672 5672 5672 5672 5672 5672 5672 5673 5674 5674 5675 5675 5677 5679 5681 5682 5683 5684 5685 5687 5688
5719 5713 5710 5705 5701 5697 5694 5691 5688 5685 5682 5680 5677 5675 5673 5672 5670 5670 5669 5668 5667 5667 5666 5666 5666 5666 5666 5666 5666 5667 5667 5667 5667 5668 5670 5672 5674 5676 5676 5677 5678 5679 5680
5717 5712 5709 5704 5700 5696 5692 5689 5685 5682 5679 5677 5674 5672 5670 5668 5667 5666 5665 5663 5662 5662 5661 5661 5661 5661 5660 5660 5660 5660 5660 5660 5660 5661 5663 5664 5666 5668 5669 5670 5671 5671 5673
5714 5710 5707 5703 5698 5694 5690 5686 5683 5680 5677 5674 5672 5669 5667 5665 5663 5662 5661 5659 5658 5657 5656 5656 5656 5655 5655 5654 5654 5653 5653 5653 5653 5655 5656 5658 5659 5661 5661 5662 5663 5664 5665
5712 5707 5704 5700 5696 5692 5688 5684 5681 5677 5674 5672 5669 5667 5664 5662 5660 5658 5657 5655 5654 5653 5652 5651 5650 5650 5650 5650 5649 5647 5647 5647 5648 5649 5650 5651 5653 5654 5655 5655 5656 5656 5657
5709 5705 5702 5698 5694 5690 5686 5682 5678 5675 5672 5669 5667 5664 5662 5659 5657 5655 5653 5651 5650 5649 5648 5647 5646 5645 5645 5645 5644 5642 5641 5641 5641 5642 5643 5644 5646 5647 5648 5648 5649 5649 5650
5706 5702 5699 5696 5692 5688 5684 5680 5676 5673 5670 5667 5665 5662 5659 5657 5654 5652 5650 5648 5646 5645 5644 5642 5641 5641 5640 5640 5639 5637 5636 5635 5635 5636 5636 5638 5640 5640 5640 5641 5641 5641 5642
5702 5699 5696 5694 5690 5686 5682 5678 5675 5671 5668 5665 5662 5659 5657 5654 5651 5649 5647 5645 5643 5641 5640 5638 5637 5636 5635 5634 5634 5632 5631 5630 5629 5629 5630 5631 5633 5634 5634 5633 5634 5634 5634
5697 5696 5694 5691 5688 5685 5681 5677 5673 5669 5666 5663 5660 5657 5654 5651 5648 5646 5644 5641 5639 5637 5635 5634 5632 5631 5630 5629 5628 5627 5626 5624 5623 5623 5623 5624 5626 5627 5627 5627 5626 5627 5627
5693 5692 5691 5688 5686 5683 5679 5675 5671 5667 5663 5660 5657 5654 5651 5648 5645 5642 5640 5637 5635 5633 5631 5630 5628 5626 5625 5624 5622 5621 5620 5619 5618 5617 5617 5617 5619 5620 5620 5620 5619 5619 5619
5693 5691 5689 5686 5683 5680 5676 5672 5668 5665 5661 5657 5654 5651 5647 5644 5641 5638 5635 5633 5631 5629 5627 5626 5624 5622 5620 5618 5617 5615 5614 5613 5612 5611 5611 5611 5612 5613 5613 5613 5612 5612 5612
5694 5689 5687 5684 5680 5677 5673 5669 5665 5662 5658 5654 5650 5647 5643 5640 5636 5633 5631 5628 5626 5624 5622 5620 5619 5617 5615 5613 5611 5610 5608 5607 5606 5605 5605 5604 5605 5606 5606 5606 5605 5605 5604
5689 5688 5685 5681 5677 5674 5670 5666 5662 5657 5654 5650 5646 5643 5639 5635 5631 5628 5625 5623 5620 5618 5616 5614 5612 5611 5609 5607 5606 5604 5603 5602 5601 5600 5599 5598 5598 5599 5599 5599 5598 5598 5597
5687 5685 5682 5678 5674 5670 5666 5662 5658 5654 5650 5646 5642 5638 5635 5630 5626 5623 5620 5617 5615 5612 5610 5608 5606 5604 5603 5601 5600 5598 5598 5597 5596 5595 5594 5592 5591 5591 5591 5592 5591 5591 5590
5688 5684 5679 5675 5672 5667 5662 5658 5655 5650 5646 5642 5638 5634 5631 5627 5623 5619 5616 5613 5610 5607 5605 5603 5601 5598 5596 5595 5594 5593 5592 5591 5591 5590 5589 5587 5586 5585 5584 5584 5584 5583 5583
5687 5682 5677 5673 5668 5664 5660 5655 5651 5647 5642 5638 5634 5630 5626 5623 5619 5615 5612 5609 5606 5603 5600 5598 5595 5592 5590 5588 5588 5587 5586 5586 5585 5584 5583 5582 5581 5578 5577 5576 5575 5575 5575
5686 5681 5676 5672 5666 5661 5656 5652 5647 5642 5638 5634 5630 5625 5622 5618 5615 5610 5607 5605 5602 5598 5594 5592 5589 5585 5583 5582 5581 5581 5581 5580 5580 5579 5578 5576 5575 5573 5571 5569 5568 5567 5566
5683 5679 5674 5670 5665 5658 5652 5646 5642 5637 5633 5629 5625 5621 5617 5613 5610 5606 5603 5601 5596 5591 5588 5585 5583 5579 5577 5576 5575 5575 5574 5574 5574 5573 5573 5571 5569 5567 5566 5563 5561 5560 5558
5678 5674 5670 5665 5660 5654 5647 5640 5635 5631 5627 5623 5620 5616 5613 5609 5605 5601 5599 5596 5590 5585 5581 5578 5576 5573 5571 5569 5567 5568 5569 5568 5568 5568 5568 5566 5565 5563 5560 5558 5555 5553 5551
5669 5666 5662 5658 5653 5647 5640 5634 5628 5625 5622 5618 5615 5612 5608 5605 5601 5596 5594 5590 5585 5580 5578 5574 5568 5564 5561 5556 5551 5554 5561 5562 5564 5566 5564 5562 5561 5558 5555 5552 5549 5546 5543
5659 5657 5655 5651 5647 5642 5636 5630 5625 5621 5617 5614 5611 5608 5605 5601 5597 5592 5588 5585 5581 5576 5572 5567 5561 5556 5554 5548 5541 5538 5544 5554 5558 5560 5559 5557 5555 5551 5548 5545 5541 5538 5535
5649 5647 5647 5644 5640 5635 5630 5624 5618 5613 5610 5607 5605 5603 5601 5597 5593 5589 5586 5581 5576 5571 5567 5563 5557 5550 5546 5541 5535 5529 5525 5537 5541 5549 5548 5547 5545 5542 5539 5535 5532 5529 5526
5638 5637 5637 5635 5631 5627 5623 5618 5612 5607 5604 5604 5601 5598 5596 5593 5589 5586 5582 5577 5573 5567 5563 5559 5552 5546 5539 5535 5527 5524 5525 5523 5519 5529 5535 5534 5532 5530 5528 5526 5523 5520 5517
5629 5628 5627 5626 5623 5619 5615 5611 5606 5602 5601 5599 5595 5593 5590 5588 5585 5581 5577 5573 5568 5563 5559 5554 5548 5541 5535 5530 5524 5516 5512 5509 5504 5500 5519 5523 5519 5521 5520 5517 5514 5511 5508
5622 5620 5618 5617 5614 5611 5608 5604 5600 5597 5594 5591 5589 5586 5584 5581 5578 5575 5570 5566 5562 5557 5553 5548 5542 5535 5530 5524 5518 5511 5504 5499 5498 5493 5498 5509 5511 5514 5508 5507 5504 5501 5498